sat.trackr.live / text

‹ back to catalog

STARLINK-30261

NORAD 57523 · 2023-115C

PAYLOAD ACTIVE UNKNOWN

§ Identity

Operator
Country
US
Launch date
2023-08-08
Launch site
AFWTR
Launch vehicle
Mass (kg)
RCS (m²)

Purposes: comms

External: N2YO · Heavens-Above · Gunter

§ Orbital elements

Epoch: 2026-09-20T21:37:06.360384Z

Period
94.27 min
Inclination
43.0034°
Eccentricity
0.0001729
Mean motion
15.27580750 rev/d
Perigee alt
481.9 km
Apogee alt
484.2 km
Semi-major
6,861.2 km
B*
5.8611e-5
RAAN
339.3728°
Arg perigee
263.6444°
Mean anomaly
96.4210°
Rev number
17,220

§ Raw data

STARLINK-302611 57523U 23115C   26263.90076806  .00001351  00000+0  58611-4 0  99932 57523  43.0034 339.3728 0001729 263.6444  96.4210 15.27580750172205

JSON: /api/v1/satellites/57523 · /tle

For live sub-satellite position, see the globe view (requires WebGL).

§ Visibility from observer

Set your observer location to see the next 7 days of passes ≥ 10°. The values pass through the URL so the page stays shareable.

No JS? Fill the form by hand. The geolocation button needs JavaScript.